Карточка аэропорта UNEE

Внимание!
Информация на этой странице в стадии наполнения.
Если вы не увидели какой-то информации, или заметили неточность - пожалуйста сообщите нам!
Спасибо!
Команда RU-STAFF
Название аэропортаКемерово
Название аэропорта (англ.)Kemerovo
Превышение873 ft. (266.1 m.)
Координаты55°16.2', 86°6.6'
Высота перехода500m
Эшелон переходаQFE>=760mm:FL030; QFE<=759=>733mm:FL040; QFE<=732mm:FL050
Коды ответчика5260-5267
Зона ОрВДНовосибирск РПИ (UNNT)
Данные METARUNEE 190130Z 15002MPS 9999 SCT040CB 20/19 Q0999 R23/CLRD60 NOSIG RMK QFE726
Проноз погоды (TAF)UNEE 182300Z 1900/1924 17003G08MPS 8000 -SHRA BKN040CB TX24/1908Z TN16/1922Z TEMPO 1900/1924 -TSRA BKN016CB BECMG 1915/1919 22003G08MPS
NOTAMshow/hide NOTAM
AWOS   TABLE

Информация о ВПП

ВПП Длина ВПП (м.) Покрытие Курс ВПП Частота ILS
053200Цементобетон46 
233200Цементобетон226109.1

Диспетчерские позиции

Позывной Наименование органа УВД Частота
UNEE_TWRКемерово-Старт118.3
UNEE_APPКемерово-Подход125.5



Спутниковое изображение